Flag for Estonia Weather past 2 weeks in Tartu, Estonia

Now
32 °F

Overcast.


Feels Like: 26 °F
Forecast: 35 / 40 °F
Wind: 7 mph from South

Location: Tartu/Ulenurme

Current Time: Mar 1, 2015 at 6:54:45 AM

Latest Report: Mar 1, 2015 at 5:50 AM


Visibility: N/A

Pressure: 29.95 "Hg

Humidity: 93%

Dew point: 30 °F

Location of TartuLocation

Historic Weather in Tartu — Graph

°F

Tartu temperature yesterday

Maximum temperature yesterday: 34 °F (at 10:50 AM)
Minimum temperature yesterday: 32 °F (at 12:50 AM)
Average temperature yesterday: 33 °F

Past Weeks' High & Low Weather Summary

 TemperatureHumidityPressure
High41 °F (Feb 22, 1:50 PM)100% (Feb 25, 9:50 AM)30.86 "Hg (Feb 25, 9:50 AM)
Low12 °F (Feb 16, 8:50 AM)25% (Feb 17, 3:50 PM)29.39 "Hg (Feb 22, 3:50 AM)
Average33 °F78%30.03 "Hg
* Reported Feb 14 5:50 AM — Mar 1 5:50 AM, Tartu, Weather by CustomWeather, © 2015

Note: Actual official high and low records may vary slightly from our data, if they occured in-between our weather recording intervals... More about our weather records

Advertising

Tartu weather history for previous 24 hours

 ConditionsComfort  
Time TempWeatherWind HumidityBarometerVisibility
5:50 AM
Sun, Mar 1
32 °FOvercast.7 mph93%29.95 "HgN/A
4:50 AM34 °FOvercast.7 mph87%29.95 "HgN/A
3:50 AM34 °FOvercast.5 mph87%29.98 "HgN/A
2:50 AM34 °FOvercast.6 mph87%29.98 "HgN/A
1:50 AM34 °FLight snow. Mostly cloudy.6 mph87%29.98 "Hg4 mi
12:50 AM32 °FOvercast.3 mph93%29.98 "HgN/A
11:50 PM
Sat, Feb 28
32 °FIce fog.3 mph93%29.98 "Hg6 mi
10:50 PM32 °FOvercast.5 mph93%29.98 "HgN/A
9:50 PM34 °FFog.No wind87%29.98 "Hg6 mi
8:50 PM34 °FOvercast.2 mph87%30.01 "HgN/A
7:50 PM34 °FMostly cloudy.No wind87%30.01 "HgN/A
6:50 PM34 °FOvercast.5 mph93%30.01 "HgN/A
5:50 PM34 °FMostly cloudy.2 mph87%29.98 "Hg6 mi
4:50 PM34 °FMore clouds than sun.5 mph93%29.98 "HgN/A
3:50 PM34 °FMostly cloudy.2 mph93%29.98 "HgN/A
2:50 PM34 °FMore clouds than sun.3 mph93%29.98 "HgN/A
1:50 PM34 °FMore clouds than sun.2 mph93%29.98 "HgN/A
12:50 PM34 °FMore clouds than sun.No wind93%29.98 "HgN/A
11:50 AM34 °FLight snow. Fog.2 mph93%29.98 "Hg2 mi
10:50 AM34 °FLight snow. Fog.2 mph93%29.98 "Hg1 mi
9:50 AM32 °FLight snow. Ice fog.No wind100%29.98 "Hg2 mi
8:50 AM32 °FDense fog.2 mph100%29.98 "Hg1 mi
7:50 AM32 °FLight snow. Dense fog.No wind93%29.98 "Hg0 mi
6:50 AM32 °FFog.2 mph93%29.95 "Hg0 mi
Weather by CustomWeather, © 2015

See weather overviewHow to use our weather pages